93P/Lovas 1 (2026)

Japanese version
Home page
Updated on March 23, 2026

---------------------------------------------------------------------

* Profile

* Pictures

* Orbital Elements

Epoch 2025 May 5.0 TT = JDT 2460800.5
T 2026 May 2.90587 TT                                   Pike
q   1.6886418            (2000.0)            P               Q
n   0.10772800     Peri.   75.01941     +0.57205383     -0.81688187
a   4.3743849      Node   339.55207     +0.64755561     +0.50508159
e   0.6139705      Incl.   12.20900     +0.50341450     +0.27856166
P   9.15
From 3437 observations 1980 Dec. 5-2025 Aug. 2, mean residual 0".5.
     Nongravitational parameters A1 = +0.03, A2 = -0.0049.

* Finding Charts

* Magnitudes Graph

        m1 =  9.3 + 5 log d + 18.0 log r  [   ,  0]  (             - 2026 May   2)
        m1 = 10.0 + 5 log d + 15.0 log r  [  0,190]  (2026 May   2 - 2026 Nov.  8)
        m1 = 12.0 + 5 log d + 10.0 log r  [190,   ]  (2026 Nov.  8 -             )

---------------------------------------------------------------------

The orbital elements are published on M.P.E.C. 2025-P113.
The charts are made with StellaNavigator Ver.11 (AstroArts).
The magnitudes graphs are made with Comet for Windows.

---------------------------------------------------------------------

Copyright(C) Seiichi Yoshida (comet@aerith.net). All rights reserved.